This demonstration page uses our WeatherBlox Daily Observations layout. Learn more.

Left ArrowRight Arrow

38.83388, -104.82136

Hourly Observations for November 15, 2019

Temp ( °F °C ) Dew Point ( °F °C ) Humidity (%) Winds ( mph kmh ) Pressure ( in mb ) Visibility ( mi km ) Precip ( " mm )
12:58 am 00:58 Cloudy 37 2.9 25 -3.9 61 61 undefined N/A 29.88 1012 10 16 0.00 0.00
1:58 am 01:58 Mostly Cloudy 43 6.3 17 -8.3 35 35 Calm 29.85 1011 10 16 0.00 0.00
2:58 am 02:58 Mostly Cloudy 46 7.6 15 -9.4 29 29 Calm 29.83 1010 10 16 0.00 0.00
3:58 am 03:58 Mostly Cloudy 46 7.9 14 -9.8 28 28 Calm 29.83 1010 10 16 0.00 0.00
4:58 am 04:58 Mostly Cloudy 48 8.7 13 -10.3 25 25 Calm 29.85 1011 10 16 0.00 0.00
6:58 am 06:58 Cloudy 49 9.4 14 -9.8 25 25 Calm 29.87 1011 10 16 0.00 0.00
7:58 am 07:58 Mostly Cloudy 50 10.2 16 -8.9 25 25 Calm 29.88 1012 10 16 0.00 0.00
8:58 am 08:58 Mostly Cloudy 50 10.1 15 -9.4 25 25 Calm 29.88 1012 10 16 0.00 0.00
9:58 am 09:58 Mostly Cloudy 55 12.6 19 -7.5 24 24 Calm 29.86 1011 10 16 0.00 0.00
10:58 am 10:58 Mostly Cloudy 57 14.1 17 -8.1 21 21 Calm 29.83 1010 10 16 0.00 0.00
11:58 am 11:58 Mostly Cloudy 57 13.9 16 -9 20 20 SE 5 7 29.84 1010 10 16 0.00 0.00
12:58 pm 12:58 Mostly Cloudy 58 14.3 16 -9 19 19 ESE 3 6 29.78 1008 10 16 0.00 0.00
1:58 pm 13:58 Mostly Cloudy 58 14.5 15 -9.6 18 18 Calm 29.72 1006 10 16 0.00 0.00
2:58 pm 14:58 Mostly Cloudy 57 13.7 14 -9.8 19 19 Calm 29.70 1006 10 16 0.00 0.00
3:58 pm 15:58 Mostly Cloudy 53 11.8 18 -7.7 25 25 Calm 29.72 1006 10 16 0.00 0.00
4:58 pm 16:58 Mostly Cloudy 53 11.4 19 -7 27 27 Calm 29.72 1006 10 16 0.00 0.00
5:58 pm 17:58 Mostly Cloudy 55 12.7 15 -9.5 20 20 N 5 7 29.72 1006 10 16 0.00 0.00
6:58 pm 18:58 Mostly Cloudy 53 11.6 15 -9.2 23 23 Calm 29.70 1006 10 16 0.00 0.00
7:58 pm 19:58 Mostly Cloudy 53 11.4 17 -8.2 25 25 Calm 29.70 1006 10 16 0.00 0.00
8:58 pm 20:58 Clear 51 10.4 14 -10 23 23 S 3 6 29.71 1006 10 16 0.00 0.00
9:58 pm 21:58 Clear 50 10 16 -9 25 25 Calm 29.68 1005 10 16 0.00 0.00
10:58 pm 22:58 Clear 50 10.1 17 -8.6 26 26 NW 5 7 29.66 1004 10 16 0.00 0.00
11:58 pm 23:58 Clear 51 10.6 16 -8.9 25 25 Calm 29.63 1004 10 16 0.00 0.00

Powered by AerisWeather